TimeEDT,TemperatureF,Dew PointF,Humidity,Sea Level PressureIn,VisibilityMPH,Wind Direction,Wind SpeedMPH,Gust SpeedMPH,PrecipitationIn,Events,Conditions,WindDirDegrees,DateUTC
12:53 AM,61.0,46.9,60,29.96,10.0,North,6.9,-,N/A,,Clear,350,2013-07-24 04:53:00
1:53 AM,60.1,48.0,64,29.97,10.0,North,6.9,-,N/A,,Clear,10,2013-07-24 05:53:00
2:53 AM,60.1,48.9,67,29.97,10.0,North,6.9,-,N/A,,Clear,360,2013-07-24 06:53:00
3:53 AM,60.1,46.9,62,29.99,10.0,ENE,8.1,-,N/A,,Scattered Clouds,70,2013-07-24 07:53:00
4:53 AM,55.0,48.0,77,30.00,10.0,ESE,3.5,-,N/A,,Partly Cloudy,120,2013-07-24 08:53:00
5:53 AM,50.0,46.9,89,30.01,10.0,Calm,Calm,-,N/A,,Clear,0,2013-07-24 09:53:00
6:53 AM,50.0,48.0,93,30.03,10.0,Calm,Calm,-,N/A,,Mostly Cloudy,0,2013-07-24 10:53:00
7:53 AM,55.9,48.9,77,30.05,10.0,Calm,Calm,-,N/A,,Mostly Cloudy,0,2013-07-24 11:53:00
8:53 AM,59.0,46.9,64,30.06,10.0,Calm,Calm,-,N/A,,Mostly Cloudy,0,2013-07-24 12:53:00
9:53 AM,62.1,41.0,46,30.07,10.0,Variable,3.5,-,N/A,,Mostly Cloudy,0,2013-07-24 13:53:00
10:53 AM,64.0,43.0,46,30.07,10.0,Variable,4.6,-,N/A,,Mostly Cloudy,0,2013-07-24 14:53:00
11:53 AM,64.9,46.0,50,30.07,10.0,NE,4.6,-,N/A,,Scattered Clouds,50,2013-07-24 15:53:00
12:53 PM,66.9,45.0,45,30.07,10.0,ENE,5.8,-,N/A,,Scattered Clouds,70,2013-07-24 16:53:00
1:53 PM,66.9,46.0,47,30.06,10.0,NE,6.9,-,N/A,,Scattered Clouds,50,2013-07-24 17:53:00
2:53 PM,69.1,46.9,45,30.05,10.0,NE,9.2,-,N/A,,Scattered Clouds,50,2013-07-24 18:53:00
3:53 PM,69.1,46.9,45,30.05,10.0,ENE,9.2,-,N/A,,Mostly Cloudy,60,2013-07-24 19:53:00
4:53 PM,70.0,46.9,44,30.04,10.0,NNE,8.1,-,N/A,,Mostly Cloudy,20,2013-07-24 20:53:00
5:53 PM,71.1,48.0,44,30.03,10.0,Variable,5.8,-,N/A,,Scattered Clouds,0,2013-07-24 21:53:00
6:53 PM,69.1,46.9,45,30.02,10.0,Variable,3.5,-,N/A,,Mostly Cloudy,0,2013-07-24 22:53:00
7:53 PM,69.1,46.9,45,30.03,10.0,North,3.5,-,N/A,,Scattered Clouds,360,2013-07-24 23:53:00
8:53 PM,68.0,48.0,49,30.03,10.0,North,4.6,-,N/A,,Scattered Clouds,10,2013-07-25 00:53:00
9:53 PM,60.1,50.0,69,30.04,10.0,Calm,Calm,-,N/A,,Scattered Clouds,0,2013-07-25 01:53:00
10:53 PM,57.0,51.1,81,30.04,10.0,Calm,Calm,-,N/A,,Clear,0,2013-07-25 02:53:00
11:53 PM,55.9,50.0,80,30.04,10.0,Calm,Calm,-,N/A,,Clear,0,2013-07-25 03:53:00